Weather Service Report


153 
ASUS44 KOUN 291810
RWROK 

WEATHER ROUNDUP FOR OKLAHOMA
NATIONAL WEATHER SERVICE NORMAN OK
100 PM CDT MON AUG 29 2016

NOTE: "FAIR" INDICATES FEW OR NO CLOUDS BELOW 12,000 FEET WITH NO
      SIGNIFICANT WEATHER AND/OR OBSTRUCTIONS TO VISIBILITY.

OKZ001>007-009>012-014-015-017-291900-
NORTHWEST OKLAHOMA AND THE PANHANDLE
  
CITY           SKY/WX    TMP DP  RH WIND       PRES   REMARKS
GAGE           CLOUDY    84  66  54 S9        30.18F                  
6HR MIN TEMP:  68; 6HR MAX TEMP:  84;                                

GUYMON         LGT RAIN  70  66  87 SE6       30.24F                  
$$

OKZ016-021>023-033>039-044-045-291900-
SOUTHWEST OKLAHOMA
  
CITY           SKY/WX    TMP DP  RH WIND       PRES   REMARKS
LAWTON/REGL    MOSUNNY   88  65  46 SE8       30.12F HX  90           
6HR MIN TEMP:  71; 6HR MAX TEMP:  88;                                

LAWTON/FT SILL MOSUNNY   88  70  54 E8        30.11F HX  93           
FREDERICK      MOSUNNY   87  69  54 SE7       30.10F HX  91           
CLINTON        CLOUDY    84  66  54 E9        30.19F                  
HOBART         LGT RAIN  74  70  87 CALM      30.18S FOG              
ALTUS AFB      PTSUNNY   85  66  53 VRB6      30.13F                  
$$

OKZ018>020-024>031-291900-
CENTRAL OKLAHOMA
  
CITY           SKY/WX    TMP DP  RH WIND       PRES   REMARKS
OKLAHOMA CITY  PTSUNNY   89  67  47 E8        30.14F HX  92           
6HR MIN TEMP:  71; 6HR MAX TEMP:  89;                                

OKC/WILEY POST MOSUNNY   86  67  52 CALM      30.14F                  
OKC/TINKER AFB SUNNY     86  68  54 VRB5      30.13F HX  90           
STILLWATER     PTSUNNY   88  69  53 VRB3      30.14F HX  92           
GUTHRIE        MOSUNNY   86  70  58 VRB6      30.14F HX  90           
$$

OKZ008-013-054>072-291900-
NORTHEAST OKLAHOMA
  
CITY           SKY/WX    TMP DP  RH WIND       PRES   REMARKS
TULSA          PTSUNNY   85  73  67 NW10      30.14S HX  91           
6HR MIN TEMP:  75; 6HR MAX TEMP:  88; 6HR PCP:  0.03;                

TULSA/JONES    TSTM      75  74  96 VRB7      30.16R                  
PONCA CITY     CLOUDY    82  70  66 SE16G22   30.16F                  
BARTLESVILLE   PTSUNNY   75  71  87 VRB3      30.16F                  
MUSKOGEE       SUNNY     93  69  45 E8        30.12F HX  98           
$$

OKZ032-040>043-046>053-073>077-291900-
SOUTH CENTRAL/SOUTHEAST OKLAHOMA
  
CITY           SKY/WX    TMP DP  RH WIND       PRES   REMARKS
ARDMORE/DWNTWN MOSUNNY   88  63  42 NE6       30.10F                  
MCALESTER      SUNNY     93  68  43 VRB3      30.11F HX  97           
$$

  

Return to Home page


Western Regional Climate Center, wrcc@dri.edu